Time,TemperatureF,DewpointF,PressureIn,WindDirection,WindDirectionDegrees,WindSpeedMPH,WindSpeedGustMPH,Humidity,HourlyPrecipIn,Conditions,Clouds,dailyrainin,SoftwareType,DateUTC
2013-02-13 00:04:00,29.4,25.0,29.82,SSW,199,0.0,0.0,83,0.00,,,0.00,weatherlink.com 1.10,2013-02-13 05:04:00,
2013-02-13 00:20:00,28.6,25.0,29.83,SSW,199,0.0,0.0,85,0.00,,,0.00,weatherlink.com 1.10,2013-02-13 05:20:00,
2013-02-13 00:35:00,28.2,25.0,29.83,SSW,199,0.0,0.0,86,0.00,,,0.00,weatherlink.com 1.10,2013-02-13 05:35:00,
2013-02-13 00:50:00,27.9,25.0,29.83,SSW,199,0.0,0.0,87,0.00,,,0.00,weatherlink.com 1.10,2013-02-13 05:50:00,
2013-02-13 01:05:00,27.4,24.0,29.82,SSW,199,0.0,0.0,87,0.00,,,0.00,weatherlink.com 1.10,2013-02-13 06:05:00,
2013-02-13 01:20:00,26.5,23.0,29.82,SSW,199,0.0,0.0,87,0.00,,,0.00,weatherlink.com 1.10,2013-02-13 06:20:00,
2013-02-13 01:35:00,26.6,24.0,29.82,SSW,199,0.0,0.0,89,0.00,,,0.00,weatherlink.com 1.10,2013-02-13 06:35:00,
2013-02-13 01:50:00,26.5,23.0,29.82,SSW,200,0.0,0.0,88,0.00,,,0.00,weatherlink.com 1.10,2013-02-13 06:50:00,
2013-02-13 02:05:00,26.5,24.0,29.82,WSW,245,0.0,1.0,89,0.00,,,0.00,weatherlink.com 1.10,2013-02-13 07:05:00,
2013-02-13 02:20:00,26.1,23.0,29.82,WSW,245,0.0,0.0,88,0.00,,,0.00,weatherlink.com 1.10,2013-02-13 07:20:00,
2013-02-13 02:35:00,25.8,23.0,29.82,SW,222,0.0,0.0,89,0.00,,,0.00,weatherlink.com 1.10,2013-02-13 07:35:00,
2013-02-13 02:50:00,27.0,24.0,29.82,SSW,199,0.0,1.0,88,0.00,,,0.00,weatherlink.com 1.10,2013-02-13 07:50:00,
2013-02-13 03:05:00,29.0,24.0,29.82,WSW,245,0.0,2.0,82,0.00,,,0.00,weatherlink.com 1.10,2013-02-13 08:05:00,
2013-02-13 03:20:00,29.8,24.0,29.83,WSW,252,2.0,4.0,78,0.00,,,0.00,weatherlink.com 1.10,2013-02-13 08:20:00,
2013-02-13 03:35:00,30.4,23.0,29.84,West,278,2.0,4.0,75,0.00,,,0.00,weatherlink.com 1.10,2013-02-13 08:35:00,
2013-02-13 03:50:00,30.9,23.0,29.84,WSW,253,1.0,4.0,73,0.00,,,0.00,weatherlink.com 1.10,2013-02-13 08:50:00,
2013-02-13 04:05:00,31.3,23.0,29.84,WSW,238,0.0,5.0,72,0.00,,,0.00,weatherlink.com 1.10,2013-02-13 09:05:00,
2013-02-13 04:20:00,31.0,23.0,29.85,West,265,1.0,4.0,72,0.00,,,0.00,weatherlink.com 1.10,2013-02-13 09:20:00,
2013-02-13 04:35:00,30.8,23.0,29.85,WSW,241,1.0,4.0,72,0.00,,,0.00,weatherlink.com 1.10,2013-02-13 09:35:00,
2013-02-13 04:50:00,30.5,22.0,29.84,SW,221,0.0,3.0,72,0.00,,,0.00,weatherlink.com 1.10,2013-02-13 09:50:00,
2013-02-13 05:05:00,29.4,22.0,29.85,SW,223,1.0,1.0,74,0.00,,,0.00,weatherlink.com 1.10,2013-02-13 10:05:00,
2013-02-13 05:20:00,28.6,22.0,29.85,SW,229,0.0,1.0,76,0.00,,,0.00,weatherlink.com 1.10,2013-02-13 10:20:00,
2013-02-13 05:35:00,28.0,22.0,29.84,SW,226,0.0,1.0,77,0.00,,,0.00,weatherlink.com 1.10,2013-02-13 10:35:00,
2013-02-13 05:50:00,27.7,22.0,29.85,SSE,156,0.0,0.0,78,0.00,,,0.00,weatherlink.com 1.10,2013-02-13 10:50:00,
2013-02-13 06:05:00,27.2,22.0,29.84,SSW,210,0.0,1.0,80,0.00,,,0.00,weatherlink.com 1.10,2013-02-13 11:05:00,
2013-02-13 06:20:00,26.6,21.0,29.84,SSW,209,0.0,0.0,80,0.00,,,0.00,weatherlink.com 1.10,2013-02-13 11:20:00,
2013-02-13 06:35:00,25.5,21.0,29.85,SSW,210,0.0,0.0,83,0.00,,,0.00,weatherlink.com 1.10,2013-02-13 11:35:00,
2013-02-13 06:50:00,25.5,21.0,29.85,SSW,210,0.0,0.0,84,0.00,,,0.00,weatherlink.com 1.10,2013-02-13 11:50:00,
2013-02-13 07:05:00,25.3,21.0,29.85,SSW,210,0.0,0.0,84,0.00,,,0.00,weatherlink.com 1.10,2013-02-13 12:05:00,
2013-02-13 07:20:00,25.8,22.0,29.86,SSW,210,0.0,0.0,86,0.00,,,0.00,weatherlink.com 1.10,2013-02-13 12:20:00,
2013-02-13 07:35:00,27.9,23.0,29.85,SW,230,0.0,1.0,83,0.00,,,0.00,weatherlink.com 1.10,2013-02-13 12:35:00,
2013-02-13 07:50:00,29.9,24.0,29.85,SW,221,0.0,1.0,79,0.00,,,0.00,weatherlink.com 1.10,2013-02-13 12:50:00,
2013-02-13 08:05:00,33.2,25.0,29.85,SW,221,0.0,0.0,72,0.00,,,0.00,weatherlink.com 1.10,2013-02-13 13:05:00,
2013-02-13 08:20:00,34.0,24.0,29.85,SW,222,0.0,1.0,68,0.00,,,0.00,weatherlink.com 1.10,2013-02-13 13:20:00,
2013-02-13 08:35:00,35.0,24.0,29.85,WSW,256,1.0,4.0,65,0.00,,,0.00,weatherlink.com 1.10,2013-02-13 13:35:00,
2013-02-13 08:50:00,36.1,24.0,29.85,West,276,1.0,5.0,63,0.00,,,0.00,weatherlink.com 1.10,2013-02-13 13:50:00,
2013-02-13 09:05:00,36.9,24.0,29.86,West,273,3.0,5.0,61,0.00,,,0.00,weatherlink.com 1.10,2013-02-13 14:05:00,
2013-02-13 09:20:00,37.2,24.0,29.85,SW,234,6.0,7.0,60,0.00,,,0.00,weatherlink.com 1.10,2013-02-13 14:20:00,
2013-02-13 09:36:00,38.0,24.0,29.84,NNW,331,2.0,6.0,58,0.00,,,0.00,weatherlink.com 1.10,2013-02-13 14:36:00,
2013-02-13 09:51:00,38.1,24.0,29.84,West,276,1.0,8.0,58,0.00,,,0.00,weatherlink.com 1.10,2013-02-13 14:51:00,
2013-02-13 10:06:00,38.8,25.0,29.84,NW,321,1.0,5.0,57,0.00,,,0.00,weatherlink.com 1.10,2013-02-13 15:06:00,
2013-02-13 10:21:00,38.8,24.0,29.83,NNW,329,2.0,6.0,56,0.00,,,0.00,weatherlink.com 1.10,2013-02-13 15:21:00,
2013-02-13 10:36:00,39.4,24.0,29.82,NNW,330,1.0,5.0,55,0.00,,,0.00,weatherlink.com 1.10,2013-02-13 15:36:00,
2013-02-13 10:51:00,39.5,24.0,29.82,WSW,251,2.0,7.0,55,0.00,,,0.00,weatherlink.com 1.10,2013-02-13 15:51:00,
2013-02-13 11:06:00,40.0,24.0,29.81,NW,312,1.0,4.0,54,0.00,,,0.00,weatherlink.com 1.10,2013-02-13 16:06:00,
2013-02-13 11:21:00,40.7,24.0,29.81,WNW,293,2.0,5.0,52,0.00,,,0.00,weatherlink.com 1.10,2013-02-13 16:21:00,
2013-02-13 11:36:00,41.0,25.0,29.81,SW,215,3.0,5.0,53,0.00,,,0.00,weatherlink.com 1.10,2013-02-13 16:36:00,
2013-02-13 11:51:00,41.3,25.0,29.81,NNW,340,1.0,3.0,53,0.00,,,0.00,weatherlink.com 1.10,2013-02-13 16:51:00,
2013-02-13 12:06:00,41.9,25.0,29.80,WNW,290,4.0,6.0,51,0.00,,,0.00,weatherlink.com 1.10,2013-02-13 17:06:00,
2013-02-13 12:21:00,42.2,25.0,29.80,WSW,248,0.0,5.0,51,0.00,,,0.00,weatherlink.com 1.10,2013-02-13 17:21:00,
2013-02-13 12:36:00,42.2,25.0,29.80,SSW,207,5.0,8.0,50,0.00,,,0.00,weatherlink.com 1.10,2013-02-13 17:36:00,
2013-02-13 12:51:00,41.5,25.0,29.80,WSW,238,0.0,4.0,53,0.00,,,0.00,weatherlink.com 1.10,2013-02-13 17:51:00,
2013-02-13 13:06:00,42.5,26.0,29.79,West,261,1.0,3.0,52,0.00,,,0.00,weatherlink.com 1.10,2013-02-13 18:06:00,
2013-02-13 13:21:00,41.6,25.0,29.79,North,350,0.0,6.0,51,0.00,,,0.00,weatherlink.com 1.10,2013-02-13 18:21:00,
2013-02-13 13:36:00,41.6,25.0,29.78,WNW,284,3.0,6.0,52,0.00,,,0.00,weatherlink.com 1.10,2013-02-13 18:36:00,
2013-02-13 13:51:00,43.3,26.0,29.78,WSW,240,2.0,4.0,50,0.00,,,0.00,weatherlink.com 1.10,2013-02-13 18:51:00,
2013-02-13 14:06:00,42.8,25.0,29.78,SW,221,3.0,10.0,49,0.00,,,0.00,weatherlink.com 1.10,2013-02-13 19:06:00,
2013-02-13 14:21:00,42.9,25.0,29.77,SW,217,4.0,6.0,49,0.00,,,0.00,weatherlink.com 1.10,2013-02-13 19:21:00,
2013-02-13 14:36:00,42.9,24.0,29.76,SW,224,2.0,7.0,48,0.00,,,0.00,weatherlink.com 1.10,2013-02-13 19:36:00,
2013-02-13 14:51:00,43.0,24.0,29.76,North,360,2.0,4.0,48,0.00,,,0.00,weatherlink.com 1.10,2013-02-13 19:51:00,
2013-02-13 15:06:00,42.6,24.0,29.75,NW,321,1.0,5.0,49,0.00,,,0.00,weatherlink.com 1.10,2013-02-13 20:06:00,
2013-02-13 15:21:00,42.7,24.0,29.75,SW,226,2.0,3.0,48,0.00,,,0.00,weatherlink.com 1.10,2013-02-13 20:21:00,
2013-02-13 15:36:00,42.5,24.0,29.74,WNW,292,1.0,4.0,49,0.00,,,0.00,weatherlink.com 1.10,2013-02-13 20:36:00,
2013-02-13 15:51:00,42.3,24.0,29.73,NW,315,1.0,5.0,48,0.00,,,0.00,weatherlink.com 1.10,2013-02-13 20:51:00,
2013-02-13 16:06:00,42.4,24.0,29.74,WNW,294,2.0,4.0,49,0.00,,,0.00,weatherlink.com 1.10,2013-02-13 21:06:00,
2013-02-13 16:21:00,42.2,24.0,29.74,NNW,336,1.0,2.0,49,0.00,,,0.00,weatherlink.com 1.10,2013-02-13 21:21:00,
2013-02-13 16:36:00,40.8,24.0,29.74,WSW,244,0.0,3.0,51,0.00,,,0.00,weatherlink.com 1.10,2013-02-13 21:36:00,
2013-02-13 16:51:00,39.7,24.0,29.74,WSW,256,0.0,1.0,53,0.00,,,0.00,weatherlink.com 1.10,2013-02-13 21:51:00,
2013-02-13 17:06:00,38.5,24.0,29.74,WSW,254,0.0,0.0,56,0.00,,,0.00,weatherlink.com 1.10,2013-02-13 22:06:00,
2013-02-13 17:21:00,37.3,24.0,29.73,WSW,254,0.0,0.0,59,0.00,,,0.00,weatherlink.com 1.10,2013-02-13 22:21:00,
2013-02-13 17:36:00,36.1,25.0,29.74,WSW,254,0.0,0.0,64,0.00,,,0.00,weatherlink.com 1.10,2013-02-13 22:36:00,
2013-02-13 17:51:00,35.2,25.0,29.73,WSW,254,0.0,0.0,66,0.00,,,0.00,weatherlink.com 1.10,2013-02-13 22:51:00,
2013-02-13 18:06:00,34.7,25.0,29.73,WSW,256,0.0,0.0,68,0.00,,,0.00,weatherlink.com 1.10,2013-02-13 23:06:00,
2013-02-13 18:21:00,34.4,25.0,29.73,WSW,256,0.0,0.0,69,0.00,,,0.00,weatherlink.com 1.10,2013-02-13 23:21:00,
2013-02-13 18:36:00,34.1,25.0,29.73,WSW,256,0.0,0.0,69,0.00,,,0.00,weatherlink.com 1.10,2013-02-13 23:36:00,
2013-02-13 18:51:00,33.5,25.0,29.73,WSW,256,0.0,0.0,70,0.00,,,0.00,weatherlink.com 1.10,2013-02-13 23:51:00,
2013-02-13 19:06:00,33.2,25.0,29.73,WSW,256,0.0,0.0,72,0.00,,,0.00,weatherlink.com 1.10,2013-02-14 00:06:00,
2013-02-13 19:21:00,33.1,26.0,29.73,WSW,256,0.0,0.0,74,0.00,,,0.00,weatherlink.com 1.10,2013-02-14 00:21:00,
2013-02-13 19:36:00,33.4,26.0,29.73,WSW,256,0.0,0.0,74,0.00,,,0.00,weatherlink.com 1.10,2013-02-14 00:36:00,
2013-02-13 19:51:00,33.4,26.0,29.72,WSW,256,0.0,0.0,75,0.00,,,0.00,weatherlink.com 1.10,2013-02-14 00:51:00,
2013-02-13 20:06:00,33.2,26.0,29.73,WSW,256,0.0,0.0,76,0.00,,,0.00,weatherlink.com 1.10,2013-02-14 01:06:00,
2013-02-13 20:21:00,32.9,26.0,29.73,WSW,256,0.0,1.0,76,0.00,,,0.00,weatherlink.com 1.10,2013-02-14 01:21:00,
2013-02-13 20:36:00,32.5,26.0,29.73,WSW,257,0.0,1.0,77,0.00,,,0.00,weatherlink.com 1.10,2013-02-14 01:36:00,
2013-02-13 20:51:00,32.5,26.0,29.72,WNW,284,1.0,1.0,78,0.00,,,0.00,weatherlink.com 1.10,2013-02-14 01:51:00,
2013-02-13 21:06:00,32.5,26.0,29.72,WNW,290,0.0,0.0,77,0.00,,,0.00,weatherlink.com 1.10,2013-02-14 02:06:00,
2013-02-13 21:21:00,32.8,27.0,29.71,WNW,289,0.0,1.0,78,0.00,,,0.00,weatherlink.com 1.10,2013-02-14 02:21:00,
2013-02-13 21:37:00,32.8,27.0,29.71,WNW,289,0.0,0.0,78,0.00,,,0.00,weatherlink.com 1.10,2013-02-14 02:37:00,
2013-02-13 21:52:00,32.9,27.0,29.70,WNW,289,0.0,1.0,79,0.00,,,0.00,weatherlink.com 1.10,2013-02-14 02:52:00,
2013-02-13 22:07:00,33.1,27.0,29.72,WNW,289,0.0,1.0,79,0.00,,,0.00,weatherlink.com 1.10,2013-02-14 03:07:00,
2013-02-13 22:22:00,33.6,28.0,29.71,WNW,289,0.0,1.0,79,0.00,,,0.00,weatherlink.com 1.10,2013-02-14 03:22:00,
2013-02-13 22:37:00,33.7,28.0,29.70,WNW,290,0.0,0.0,78,0.00,,,0.00,weatherlink.com 1.10,2013-02-14 03:37:00,
2013-02-13 22:52:00,33.7,28.0,29.70,WNW,290,0.0,0.0,78,0.00,,,0.00,weatherlink.com 1.10,2013-02-14 03:52:00,
2013-02-13 23:07:00,33.6,27.0,29.71,WNW,289,0.0,0.0,78,0.00,,,0.00,weatherlink.com 1.10,2013-02-14 04:07:00,
2013-02-13 23:37:00,33.4,27.0,29.68,NNW,337,0.0,1.0,78,0.00,,,0.00,weatherlink.com 1.10,2013-02-14 04:37:00,